Regional Weather Roundup
Issued by NWS

Home | Current Version | Previous Version | Graphics & Text | Print | Product List | Glossary On
Versions: 1 2 3 4 5 6 7 8 9 10 11 12 13 14 15 16 17 18 19 20 21 22 23 24 25 26 27 28 29 30 31 32 33 34 35 36 37 38 39 40 41 42 43 44 45 46 47 48 49 50
787
ASUS43 KLMK 272002
RWRKY
KENTUCKY REGIONAL WEATHER ROUNDUP
NATIONAL WEATHER SERVICE LOUISVILLE KY
300 PM EST MON FEB 27 2017

NOTE "FAIR" INDICATES FEW OR NO CLOUDS BELOW 12,000 FEET
WITH NO SIGNIFICANT WEATHER AND/OR OBSTRUCTIONS TO VISIBILITY.

KYZ001>023-026-027-061>063-070>075-272100-
WESTERN AND SOUTH CENTRAL KENTUCKY

CITY           SKY/WX    TMP DP  RH WIND       PRES   REMARKS
PADUCAH        PTSUNNY   64  46  52 S8        30.09F
HENDERSON      CLOUDY    57  43  58 SE5       30.11F
OWENSBORO      PTSUNNY   60  44  55 S9        30.13F
HOPKINSVILLE   MOSUNNY   64  44  47 S7        30.12F
BOWLING GREEN  CLOUDY    62  41  46 S14G21    30.16F
GLASGOW        NOT AVBL
$$

KYZ024-025-028>034-038-045-046-053-272100-
NORTH CENTRAL KENTUCKY

CITY           SKY/WX    TMP DP  RH WIND       PRES   REMARKS
LOUISVILLE/SDF PTSUNNY   55  41  59 SE9       30.17F
LOUISVILLE/LOU PTSUNNY   54  41  61 SE9       30.18F
FORT KNOX      MOSUNNY   56  40  54 S8        30.14F
$$

KYZ035>037-039>044-047>052-055>060-089>105-272100-
NORTHEAST KENTUCKY

CITY           SKY/WX    TMP DP  RH WIND       PRES   REMARKS
LEXINGTON      CLOUDY    55  36  48 S7        30.19F
COVINGTON      CLOUDY    47  45  93 S9        30.20F
FRANKFORT      CLOUDY    53  39  59 SE7       30.18F
$$

KYZ054-064>069-076>088-106>120-272100-
SOUTHEAST KENTUCKY

CITY           SKY/WX    TMP DP  RH WIND       PRES   REMARKS
JACKSON        CLOUDY    54  27  35 VRB3      30.22S
LONDON         CLOUDY    53  32  44 S10G20    30.21F
SOMERSET       CLOUDY    54  36  50 S14G21    30.22F
MIDDLESBORO    CLOUDY    51  32  47 S7        30.24F
MONTICELLO     CLOUDY    55  40  56 S12G20    30.21F
$$





USA.gov is the U.S. government's official web portal to all federal, state and local government web resources and services.